Portada
METAR-TAF:

METAR-TAF

Aeropuertos :

Peachtree City Airport (Falcon Field)

Atlanta, Georgia, Estados Unidos

latitud: 33-21-19N, longitud: 084-34-01W, altitud: 246 m

Observación

El informe se hizo hace 19 minutos, a las 14:53 UTC
Viento calma
Temperatura 29°C
Humedad 74%
Presión 1018 hPa
Visibilidad: 11.3 km
Cielo despejado

METAR: KFFC 121453Z AUTO 00000KT 7SM CLR 29/24 A3006 RMK AO2 SLP171 T02940239 51003

Hora: 11:12 (15:12 UTC)


TAF: falta

Observaciones y pronósticos meteorológicos de más de 4000 aeropuertos (mensajes METAR y TAF).

Los puntos amarillos y rojos representan las estaciones disponibles.

Ponga el ratón en el punto deseado para ver el nombre de la estación.

Haga clic para ver las observaciones y los pronósticos meteorológicos.

Para cambiar el mapa : haga clic en los botones verdes con una cruz de color negro para hacer un zoom, en el botón verde con un guión para alejar o en las flechas verdes para mapas adyacentes.


METAR-TAF: